Center Hill Lake Weather Center

Moon Phase Calendar



Center Hill Lake Water Level
Online Cameras

 


      

Current Conditions in Smithville
11/27/2020 10:57:18 AM

58°F
Feels Like 54
Clear
Humidity
67%
Pressure
30.15"
Wind
5.8 mph (SSE)
Dew Point
47°F
UV Index
3/10 (Moderate)
Visibility
6 mi

Hourly Forecast

Date & Time Fri, Nov 27
10:00 AM
Fri, Nov 27
11:00 AM
Fri, Nov 27
12:00 PM
Fri, Nov 27
1:00 PM
Fri, Nov 27
2:00 PM
Fri, Nov 27
3:00 PM
Fri, Nov 27
4:00 PM
Fri, Nov 27
5:00 PM
Fri, Nov 27
6:00 PM
Fri, Nov 27
7:00 PM
Fri, Nov 27
8:00 PM
Fri, Nov 27
9:00 PM
Fri, Nov 27
10:00 PM
Fri, Nov 27
11:00 PM
Sat, Nov 28
12:00 AM
Sat, Nov 28
1:00 AM
Sat, Nov 28
2:00 AM
Sat, Nov 28
3:00 AM
Sat, Nov 28
4:00 AM
Sat, Nov 28
5:00 AM
Sat, Nov 28
6:00 AM
Sat, Nov 28
7:00 AM
Sat, Nov 28
8:00 AM
Sat, Nov 28
9:00 AM
Sat, Nov 28
10:00 AM
Sat, Nov 28
11:00 AM
Sat, Nov 28
12:00 PM
Sat, Nov 28
1:00 PM
Sat, Nov 28
2:00 PM
Sat, Nov 28
3:00 PM
Sat, Nov 28
4:00 PM
Sat, Nov 28
5:00 PM
Sat, Nov 28
6:00 PM
Sat, Nov 28
7:00 PM
Sat, Nov 28
8:00 PM
Sat, Nov 28
9:00 PM
Sat, Nov 28
10:00 PM
Sat, Nov 28
11:00 PM
Sun, Nov 29
12:00 AM
Sun, Nov 29
1:00 AM
Sun, Nov 29
2:00 AM
Sun, Nov 29
3:00 AM
Sun, Nov 29
4:00 AM
Sun, Nov 29
5:00 AM
Sun, Nov 29
6:00 AM
Sun, Nov 29
7:00 AM
Sun, Nov 29
8:00 AM
Sun, Nov 29
9:00 AM
Condition
Clear

Clear

Clouds

Clouds

Clouds

Clouds

Clouds

Clouds

Clouds

Clouds

Clouds

Clouds

Clouds

Clouds

Clouds

Clouds

Clouds

Clouds

Clouds

Clouds

Clouds

Clear

Clear

Clear

Clear

Clear

Clear

Clear

Clear

Clear

Clear

Clear

Clear

Clear

Clear

Clear

Clear

Clear

Clouds

Clouds

Clouds

Clouds

Clouds

Clouds

Clouds

Clouds

Clouds

Clouds
Temperature 58°F59°F61°F62°F63°F62°F56°F55°F56°F55°F55°F54°F53°F52°F51°F49°F49°F49°F47°F44°F43°F43°F46°F50°F53°F55°F57°F58°F58°F57°F53°F48°F47°F45°F45°F44°F43°F43°F44°F43°F44°F44°F44°F44°F45°F45°F50°F55°F
Feels Like 56°F56°F57°F59°F60°F60°F54°F53°F53°F51°F52°F51°F49°F48°F47°F45°F45°F44°F41°F39°F38°F38°F41°F45°F48°F51°F53°F54°F54°F52°F48°F44°F42°F41°F40°F39°F38°F39°F39°F39°F39°F40°F39°F39°F40°F40°F44°F50°F
Cloudiness 1%7%22%94%99%100%100%100%100%100%100%100%100%100%100%100%95%90%77%64%53%0%0%0%0%0%0%0%0%0%0%0%0%0%0%0%0%3%19%100%100%100%100%100%100%96%92%69%
Visibility 6 mi6 mi6 mi6 mi6 mi6 mi6 mi6 mi6 mi6 mi6 mi6 mi6 mi6 mi6 mi6 mi6 mi6 mi6 mi6 mi6 mi6 mi6 mi6 mi6 mi6 mi6 mi6 mi6 mi6 mi6 mi6 mi6 mi6 mi6 mi6 mi6 mi6 mi6 mi6 mi6 mi6 mi6 mi6 mi6 mi6 mi6 mi6 mi
Precipitation 0%0%0%0%0%0%0%0%0%0%0%0%0%0%0%0%0%0%0%0%0%0%0%0%0%0%0%0%0%0%0%0%0%0%0%0%0%0%0%0%0%0%0%0%0%0%0%0%
Humidity 67%60%51%46%45%54%59%60%59%60%59%62%66%69%72%78%78%79%83%88%91%92%84%75%68%62%57%53%51%54%63%70%73%76%77%79%80%83%81%83%82%81%81%80%79%80%74%69%
Dew Point 47°F45°F42°F41°F41°F45°F42°F41°F42°F41°F41°F41°F42°F42°F43°F43°F43°F43°F42°F41°F41°F41°F41°F42°F43°F43°F42°F41°F41°F41°F41°F39°F38°F38°F38°F38°F38°F38°F38°F39°F39°F39°F39°F39°F39°F40°F42°F45°F
Pressure 30.15"30.15"30.12"30.09"30.06"30.06"30.06"30.06"30.09"30.09"30.09"30.12"30.12"30.12"30.12"30.12"30.12"30.12"30.15"30.15"30.15"30.18"30.18"30.18"30.18"30.18"30.15"30.15"30.12"30.12"30.12"30.12"30.15"30.15"30.15"30.15"30.15"30.15"30.15"30.15"30.12"30.12"30.12"30.09"30.09"30.09"30.06"30.06"
Wind Speed 2.2 mph2.6 mph4.1 mph2.7 mph1.4 mph0.4 mph1.4 mph0.4 mph0.7 mph2 mph2.3 mph2 mph4 mph3.6 mph3.9 mph4.5 mph4.6 mph4.2 mph6 mph5.3 mph5.9 mph4.4 mph5.8 mph5 mph5.5 mph5.4 mph5.2 mph4.5 mph4.2 mph4.6 mph4.5 mph3.2 mph3.3 mph2.9 mph3.5 mph3.1 mph3.5 mph2 mph3 mph2.4 mph3.6 mph3.6 mph3.8 mph4.4 mph4.6 mph4.8 mph6.1 mph6.5 mph
Wind
Direction
153°
SSE
167°
SSE
190°
S
190°
S
201°
SSW
69°
ENE
13°
NNE

N
347°
NNW
117°
ESE
98°
E
296°
WNW
328°
NNW
343°
NNW

N
357°
N

N
343°
NNW
355°
N
356°
N

N

N
14°
NNE
27°
NNE
19°
NNE
15°
NNE
14°
NNE

N

N

N
10°
N
12°
NNE
38°
NE
25°
NNE
33°
NNE
29°
NNE
60°
ENE
106°
ESE
88°
E
103°
ESE
112°
ESE
108°
ESE
113°
ESE
132°
SE
124°
SE
129°
SE
127°
SE
129°
SE

Daily Forecast

Date High Low Precip. Humidity
Today
Nov 27

Clear
63 °F
43 °F
0%
60%
Saturday
Nov 28

Clear
58 °F
43 °F
0%
62%
Sunday
Nov 29

Rain
59 °F
44 °F
100%
78%
Monday
Nov 30

Snow
48 °F
30 °F
100%
93%
Tuesday
Dec 1

Snow
36 °F
23 °F
76%
82%
Wednesday
Dec 2

Clouds
47 °F
26 °F
0%
54%
Thursday
Dec 3

Clouds
50 °F
34 °F
0%
63%
Friday
Dec 4

Clear
49 °F
30 °F
0%
51%
Saturday
Dec 5

Rain
46 °F
35 °F
100%
63%
Sunday
Dec 6

Snow
54 °F
34 °F
100%
79%
Monday
Dec 7

Snow
31 °F
25 °F
99%
93%
Tuesday
Dec 8

Clouds
40 °F
24 °F
0%
72%
Wednesday
Dec 9

Clear
40 °F
26 °F
0%
68%
Thursday
Dec 10

Clear
47 °F
29 °F
0%
63%
Friday
Dec 11

Clouds
54 °F
34 °F
0%
57%
Saturday
Dec 12

Clouds
44 °F
31 °F
0%
61%


Temperature 8-14 Day Outlook



Precipitation 8-14 Day Outlook




Quick Links
Center Hill Lake News
Center Hill Lake Photos
Center Hill Lake Videos




About Us
Contact Us
Site Map
Search Site
Advertise With Us
   
CenterHill.USLakes.info
THE CENTER HILL LAKE WEBSITE

Copyright 2020, Lakes Online
Privacy    |    Legal